Location: *
(42.0175°N, 9.4056°E)
Time: 08:04:08
(UTC+00:00)

Meteor 1-11 Rocket - Pass Details

Date: 25 August 2019
Orbit: 831 x 916 km, 81.2° (Epoch: 16 September)

Event Time Altitude Azimuth Distance (km) Brightness Sun altitude
Rises 19:51:42 0° 194° (SSW) 3,512 6.7 -18.3°
Reaches altitude 10° 19:54:09 10° 196° (SSW) 2,583 6.0 -18.7°
Maximum altitude 20:00:04 73° 281° (W) 956 4.1 -19.6°
Drops below altitude 10° 20:06:03 10° 6° (N) 2,616 6.6 -20.5°
Sets 20:08:33 0° 9° (N) 3,561 7.3 -20.8°
